status,avgMeasuredTime,avgSpeed,extID,medianMeasuredTime,TIMESTAMP,vehicleCount,_id,REPORT_ID
OK,67,53,920,67,2014-08-01T08:00:00,1,20746975,197381
OK,67,53,920,67,2014-08-01T08:05:00,1,20747424,197381
OK,67,53,920,67,2014-08-01T08:10:00,0,20747797,197381
OK,67,53,920,67,2014-08-01T08:15:00,0,20748246,197381
OK,67,53,920,67,2014-08-01T08:20:00,0,20748695,197381
OK,67,53,920,67,2014-08-01T08:25:00,0,20749144,197381
OK,67,53,920,67,2014-08-01T08:30:00,0,20749593,197381
OK,67,53,920,67,2014-08-01T08:35:00,0,20750042,197381
OK,67,53,920,67,2014-08-01T08:40:00,0,20750491,197381
OK,67,53,920,67,2014-08-01T08:45:00,0,20750940,197381
OK,67,53,920,67,2014-08-01T08:50:00,0,20751389,197381
OK,67,53,920,67,2014-08-01T08:55:00,0,20751838,197381
OK,69,51,920,69,2014-08-01T09:00:00,1,20752287,197381
OK,69,51,920,69,2014-08-01T09:05:00,1,20752736,197381
OK,69,51,920,69,2014-08-01T09:10:00,0,20753185,197381
OK,69,51,920,69,2014-08-01T09:20:00,0,20754083,197381
OK,69,51,920,69,2014-08-01T09:25:00,0,20754532,197381
OK,69,51,920,69,2014-08-01T09:30:00,0,20754981,197381
OK,69,51,920,69,2014-08-01T09:35:00,0,20755430,197381
OK,69,51,920,69,2014-08-01T09:40:00,0,20755879,197381
OK,69,51,920,69,2014-08-01T09:45:00,0,20756328,197381
OK,69,51,920,69,2014-08-01T09:50:00,0,20756777,197381
OK,69,51,920,69,2014-08-01T09:55:00,1,20757226,197381
OK,69,51,920,69,2014-08-01T10:00:00,1,20757675,197381
OK,69,51,920,69,2014-08-01T10:05:00,0,20758124,197381
OK,69,51,920,69,2014-08-01T10:15:00,0,20759022,197381
OK,69,51,920,69,2014-08-01T10:20:00,0,20759471,197381
OK,69,51,920,69,2014-08-01T10:25:00,0,20759920,197381
OK,69,51,920,69,2014-08-01T10:30:00,0,20760369,197381
OK,70,51,920,70,2014-08-01T10:35:00,1,20760818,197381
OK,70,51,920,70,2014-08-01T10:40:00,1,20761267,197381
OK,70,51,920,70,2014-08-01T10:45:00,0,20761716,197381
OK,70,51,920,70,2014-08-01T10:50:00,0,20762165,197381
OK,70,51,920,70,2014-08-01T10:55:00,0,20762614,197381
OK,70,51,920,70,2014-08-01T11:00:00,0,20763063,197381
OK,70,51,920,70,2014-08-01T11:05:00,0,20763512,197381
OK,77,46,920,77,2014-08-01T11:10:00,1,20763961,197381
OK,77,46,920,77,2014-08-01T11:15:00,1,20764409,197381
OK,77,46,920,77,2014-08-01T11:20:00,0,20764858,197381
OK,77,46,920,77,2014-08-01T11:25:00,0,20765307,197381
OK,77,46,920,77,2014-08-01T11:30:00,0,20765756,197381
OK,77,46,920,77,2014-08-01T11:35:00,0,20766205,197381
OK,77,46,920,77,2014-08-01T11:40:00,0,20766654,197381
OK,77,46,920,77,2014-08-01T11:45:00,0,20767103,197381
OK,77,46,920,77,2014-08-01T11:50:00,0,20767552,197381
OK,82,43,920,82,2014-08-01T11:55:00,1,20768001,197381
OK,82,43,920,82,2014-08-01T12:00:00,1,20768450,197381
OK,82,43,920,82,2014-08-01T12:05:00,0,20768899,197381
OK,82,43,920,82,2014-08-01T12:10:00,0,20769348,197381
OK,64,55,920,64,2014-08-01T12:15:00,1,20769797,197381
OK,74,48,920,74,2014-08-01T12:20:00,3,20770246,197381
OK,75,47,920,75,2014-08-01T12:25:00,2,20770695,197381
OK,75,47,920,75,2014-08-01T12:30:00,0,20771144,197381
OK,75,47,920,75,2014-08-01T12:35:00,0,20771593,197381
OK,75,47,920,75,2014-08-01T12:40:00,0,20772042,197381
OK,75,47,920,75,2014-08-01T12:45:00,0,20772491,197381
OK,75,47,920,75,2014-08-01T12:50:00,0,20772940,197381
OK,75,47,920,75,2014-08-01T12:55:00,0,20773389,197381
OK,75,47,920,75,2014-08-01T13:00:00,0,20773838,197381
OK,75,47,920,75,2014-08-01T13:05:00,0,20774287,197381
OK,75,47,920,75,2014-08-01T13:10:00,0,20774736,197381
OK,75,47,920,75,2014-08-01T13:15:00,0,20775185,197381
OK,75,47,920,75,2014-08-01T13:20:00,0,20775634,197381
OK,75,47,920,75,2014-08-01T13:25:00,0,20776083,197381
OK,75,47,920,75,2014-08-01T13:30:00,0,20776532,197381
OK,75,47,920,75,2014-08-01T13:35:00,0,20776981,197381
OK,75,47,920,75,2014-08-01T13:40:00,0,20777430,197381
OK,75,47,920,75,2014-08-01T13:45:00,0,20777879,197381
OK,75,47,920,75,2014-08-01T13:50:00,0,20778328,197381
OK,75,47,920,75,2014-08-01T14:00:00,0,20779226,197381
OK,75,47,920,75,2014-08-01T14:05:00,0,20779675,197381
OK,75,47,920,75,2014-08-01T14:10:00,0,20780124,197381
OK,75,47,920,75,2014-08-01T14:15:00,0,20780573,197381
OK,75,47,920,75,2014-08-01T14:20:00,0,20781022,197381
OK,75,47,920,75,2014-08-01T14:25:00,0,20781471,197381
OK,75,47,920,75,2014-08-01T14:30:00,0,20781920,197381
OK,75,47,920,75,2014-08-01T14:35:00,0,20782369,197381
OK,75,47,920,75,2014-08-01T14:40:00,0,20782818,197381
OK,75,47,920,75,2014-08-01T14:45:00,0,20783267,197381
OK,75,47,920,75,2014-08-01T14:50:00,0,20783716,197381
OK,75,47,920,75,2014-08-01T14:55:00,0,20784165,197381
OK,75,47,920,75,2014-08-01T15:00:00,0,20784614,197381
OK,75,47,920,75,2014-08-01T15:05:00,0,20785063,197381
OK,75,47,920,75,2014-08-01T15:10:00,0,20785512,197381
OK,75,47,920,75,2014-08-01T15:15:00,0,20785961,197381
OK,75,47,920,75,2014-08-01T15:20:00,0,20786410,197381
OK,64,55,920,64,2014-08-01T15:25:00,1,20786859,197381
OK,68,52,920,68,2014-08-01T15:30:00,1,20787308,197381
OK,68,52,920,68,2014-08-01T15:35:00,0,20787757,197381
OK,68,52,920,68,2014-08-01T15:40:00,0,20788206,197381
OK,68,52,920,68,2014-08-01T15:45:00,0,20788655,197381
OK,68,52,920,68,2014-08-01T15:50:00,0,20789104,197381
OK,68,52,920,68,2014-08-01T15:55:00,0,20789553,197381
OK,68,52,920,68,2014-08-01T16:00:00,0,20790002,197381
OK,68,52,920,68,2014-08-01T16:05:00,0,20790451,197381
OK,68,52,920,68,2014-08-01T16:10:00,0,20790900,197381
OK,68,52,920,68,2014-08-01T16:15:00,0,20791349,197381
OK,68,52,920,68,2014-08-01T16:20:00,0,20791798,197381
OK,68,52,920,68,2014-08-01T16:25:00,0,20792247,197381
OK,68,52,920,68,2014-08-01T16:30:00,0,20792696,197381
OK,68,52,920,68,2014-08-01T16:35:00,0,20793145,197381
OK,68,52,920,68,2014-08-01T16:40:00,0,20793594,197381
OK,68,52,920,68,2014-08-01T16:45:00,0,20794043,197381
OK,68,52,920,68,2014-08-01T16:50:00,0,20794492,197381
OK,68,52,920,68,2014-08-01T16:55:00,0,20794941,197381
OK,68,52,920,68,2014-08-01T17:00:00,0,20795390,197381
OK,68,52,920,68,2014-08-01T17:05:00,0,20795839,197381
OK,68,52,920,68,2014-08-01T17:10:00,0,20796288,197381
OK,68,52,920,68,2014-08-01T17:15:00,0,20796737,197381
OK,68,52,920,68,2014-08-01T17:20:00,0,20797186,197381
OK,68,52,920,68,2014-08-01T17:25:00,0,20797635,197381
OK,68,52,920,68,2014-08-01T17:30:00,0,20798084,197381
OK,68,52,920,68,2014-08-01T17:35:00,0,20798533,197381
OK,68,52,920,68,2014-08-01T17:40:00,0,20798982,197381
OK,68,52,920,68,2014-08-01T17:45:00,0,20799431,197381
OK,68,52,920,68,2014-08-01T17:50:00,0,20799880,197381
OK,68,52,920,68,2014-08-01T17:55:00,0,20800329,197381
OK,68,52,920,68,2014-08-01T18:00:00,0,20800778,197381
OK,68,52,920,68,2014-08-01T18:05:00,0,20801227,197381
OK,68,52,920,68,2014-08-01T18:10:00,0,20801676,197381
OK,68,52,920,68,2014-08-01T18:15:00,0,20802125,197381
OK,68,52,920,68,2014-08-01T18:20:00,0,20802574,197381
OK,68,52,920,68,2014-08-01T18:25:00,0,20803023,197381
OK,68,52,920,68,2014-08-01T18:30:00,0,20803472,197381
OK,68,52,920,68,2014-08-01T18:35:00,0,20803921,197381
OK,68,52,920,68,2014-08-01T18:40:00,0,20804370,197381
OK,68,52,920,68,2014-08-01T18:45:00,0,20804819,197381
OK,68,52,920,68,2014-08-01T18:50:00,0,20805268,197381
OK,68,52,920,68,2014-08-01T18:55:00,0,20805717,197381
OK,68,52,920,68,2014-08-01T19:00:00,0,20806166,197381
OK,68,52,920,68,2014-08-01T19:05:00,0,20806615,197381
OK,68,52,920,68,2014-08-01T19:10:00,0,20807064,197381
OK,68,52,920,68,2014-08-01T19:15:00,0,20807513,197381
OK,68,52,920,68,2014-08-01T19:20:00,0,20807962,197381
OK,68,52,920,68,2014-08-01T19:25:00,0,20808411,197381
OK,68,52,920,68,2014-08-01T19:30:00,0,20808860,197381
OK,68,52,920,68,2014-08-01T19:35:00,0,20809309,197381
OK,68,52,920,68,2014-08-01T19:40:00,0,20809758,197381
OK,68,52,920,68,2014-08-01T19:45:00,0,20810207,197381
OK,68,52,920,68,2014-08-01T19:50:00,0,20810656,197381
OK,68,52,920,68,2014-08-01T19:55:00,0,20811105,197381
OK,68,52,920,68,2014-08-01T22:00:00,0,20816834,197381
OK,68,52,920,68,2014-08-02T00:00:00,0,20823273,197381
OK,68,52,920,68,2014-08-02T00:05:00,0,20823722,197381
OK,68,52,920,68,2014-08-02T00:10:00,0,20824171,197381
OK,68,52,920,68,2014-08-02T00:15:00,0,20824620,197381
OK,68,52,920,68,2014-08-02T00:20:00,0,20825069,197381
OK,68,52,920,68,2014-08-02T00:25:00,0,20825518,197381
OK,68,52,920,68,2014-08-02T00:30:00,0,20825967,197381
OK,68,52,920,68,2014-08-02T00:35:00,0,20826416,197381
OK,68,52,920,68,2014-08-02T00:40:00,0,20826865,197381
OK,68,52,920,68,2014-08-02T00:45:00,0,20827314,197381
OK,68,52,920,68,2014-08-02T00:50:00,0,20827763,197381
OK,68,52,920,68,2014-08-02T00:55:00,0,20828212,197381
OK,68,52,920,68,2014-08-02T01:00:00,0,20828661,197381
OK,68,52,920,68,2014-08-02T01:05:00,0,20829110,197381
OK,68,52,920,68,2014-08-02T01:10:00,0,20829559,197381
OK,68,52,920,68,2014-08-02T01:15:00,0,20830008,197381
OK,68,52,920,68,2014-08-02T01:20:00,0,20830457,197381
OK,68,52,920,68,2014-08-02T01:25:00,0,20830906,197381
OK,68,52,920,68,2014-08-02T01:30:00,0,20831355,197381
OK,68,52,920,68,2014-08-02T01:35:00,0,20831804,197381
OK,68,52,920,68,2014-08-02T01:40:00,0,20832253,197381
OK,68,52,920,68,2014-08-02T01:45:00,0,20832702,197381
OK,68,52,920,68,2014-08-02T01:50:00,0,20833151,197381
OK,68,52,920,68,2014-08-02T01:55:00,0,20833600,197381
OK,68,52,920,68,2014-08-02T02:00:00,0,20834049,197381
OK,68,52,920,68,2014-08-02T02:05:00,0,20834498,197381
OK,68,52,920,68,2014-08-02T02:10:00,0,20834947,197381
OK,68,52,920,68,2014-08-02T02:15:00,0,20835396,197381
OK,68,52,920,68,2014-08-02T02:20:00,0,20835845,197381
OK,68,52,920,68,2014-08-02T02:25:00,0,20836294,197381
OK,68,52,920,68,2014-08-02T02:30:00,0,20836743,197381
OK,68,52,920,68,2014-08-02T02:35:00,0,20837192,197381
OK,68,52,920,68,2014-08-02T02:40:00,0,20837641,197381
OK,68,52,920,68,2014-08-02T02:45:00,0,20838090,197381
OK,68,52,920,68,2014-08-02T02:50:00,0,20838539,197381
OK,68,52,920,68,2014-08-02T02:55:00,0,20838988,197381
OK,68,52,920,68,2014-08-02T03:00:00,0,20839437,197381
OK,68,52,920,68,2014-08-02T03:05:00,0,20839886,197381
OK,68,52,920,68,2014-08-02T03:10:00,0,20840335,197381
OK,68,52,920,68,2014-08-02T03:15:00,0,20840784,197381
OK,68,52,920,68,2014-08-02T03:20:00,0,20841233,197381
OK,68,52,920,68,2014-08-02T03:25:00,0,20841682,197381
OK,68,52,920,68,2014-08-02T03:30:00,0,20842131,197381
OK,68,52,920,68,2014-08-02T03:35:00,0,20842580,197381
OK,68,52,920,68,2014-08-02T03:40:00,0,20843029,197381
OK,68,52,920,68,2014-08-02T03:45:00,0,20843478,197381
OK,68,52,920,68,2014-08-02T03:50:00,0,20843927,197381
OK,68,52,920,68,2014-08-02T03:55:00,0,20844376,197381
OK,68,52,920,68,2014-08-02T06:00:00,0,20851830,197381
OK,68,52,920,68,2014-08-02T06:05:00,0,20852279,197381
OK,68,52,920,68,2014-08-02T06:10:00,0,20852728,197381
OK,68,52,920,68,2014-08-02T06:15:00,0,20853177,197381
OK,68,52,920,68,2014-08-02T06:20:00,0,20853626,197381
OK,68,52,920,68,2014-08-02T06:25:00,0,20854075,197381
OK,68,52,920,68,2014-08-02T06:30:00,0,20854524,197381
OK,68,52,920,68,2014-08-02T06:35:00,0,20854973,197381
OK,68,52,920,68,2014-08-02T06:40:00,0,20855422,197381
OK,68,52,920,68,2014-08-02T06:45:00,0,20855871,197381
OK,68,52,920,68,2014-08-02T06:50:00,0,20856320,197381
OK,68,52,920,68,2014-08-02T06:55:00,0,20856769,197381
OK,68,52,920,68,2014-08-02T07:00:00,0,20857218,197381
OK,68,52,920,68,2014-08-02T07:05:00,0,20857667,197381
OK,68,52,920,68,2014-08-02T07:10:00,0,20858116,197381
OK,68,52,920,68,2014-08-02T07:15:00,0,20858565,197381
OK,68,52,920,68,2014-08-02T07:20:00,0,20859014,197381
OK,68,52,920,68,2014-08-02T07:25:00,0,20859463,197381
OK,68,52,920,68,2014-08-02T07:30:00,0,20859912,197381
OK,68,52,920,68,2014-08-02T07:35:00,0,20860361,197381
OK,68,52,920,68,2014-08-02T07:40:00,0,20860810,197381
OK,68,52,920,68,2014-08-02T07:45:00,0,20861259,197381
OK,68,52,920,68,2014-08-02T07:50:00,0,20861708,197381
OK,68,52,920,68,2014-08-02T07:55:00,0,20862157,197381
OK,68,52,920,68,2014-08-02T08:00:00,0,20862606,197381
OK,68,52,920,68,2014-08-02T08:05:00,0,20863055,197381
OK,68,52,920,68,2014-08-02T08:10:00,0,20863504,197381
OK,68,52,920,68,2014-08-02T08:15:00,0,20863953,197381
OK,68,52,920,68,2014-08-02T08:20:00,0,20864402,197381
OK,68,52,920,68,2014-08-02T08:25:00,0,20864851,197381
OK,68,52,920,68,2014-08-02T08:30:00,0,20865300,197381
OK,68,52,920,68,2014-08-02T08:35:00,0,20865749,197381
OK,68,52,920,68,2014-08-02T08:40:00,0,20866198,197381
OK,68,52,920,68,2014-08-02T08:45:00,0,20866647,197381
OK,68,52,920,68,2014-08-02T08:50:00,0,20867096,197381
OK,68,52,920,68,2014-08-02T08:55:00,0,20867545,197381
OK,68,52,920,68,2014-08-02T09:00:00,0,20867994,197381
OK,68,52,920,68,2014-08-02T09:05:00,0,20868443,197381
OK,68,52,920,68,2014-08-02T09:10:00,0,20868892,197381
OK,68,52,920,68,2014-08-02T09:15:00,0,20869341,197381
OK,68,52,920,68,2014-08-02T09:20:00,0,20869790,197381
OK,68,52,920,68,2014-08-02T09:25:00,0,20870239,197381
OK,68,52,920,68,2014-08-02T09:30:00,0,20870688,197381
OK,66,54,920,66,2014-08-02T09:35:00,1,20871137,197381
OK,66,54,920,66,2014-08-02T09:40:00,0,20871586,197381
OK,66,54,920,66,2014-08-02T09:45:00,0,20872035,197381
OK,66,54,920,66,2014-08-02T09:50:00,0,20872484,197381
OK,66,54,920,66,2014-08-02T09:55:00,0,20872933,197381
OK,66,54,920,66,2014-08-02T10:00:00,0,20873382,197381
OK,66,54,920,66,2014-08-02T10:05:00,0,20873831,197381
OK,66,54,920,66,2014-08-02T10:10:00,0,20874280,197381
OK,66,54,920,66,2014-08-02T10:15:00,0,20874729,197381
OK,66,54,920,66,2014-08-02T10:20:00,0,20875178,197381
OK,66,54,920,66,2014-08-02T10:25:00,0,20875627,197381
OK,91,39,920,91,2014-08-02T10:30:00,2,20876076,197381
OK,91,39,920,91,2014-08-02T10:35:00,2,20876525,197381
OK,61,58,920,61,2014-08-02T10:40:00,1,20876974,197381
OK,61,58,920,61,2014-08-02T10:45:00,1,20877423,197381
OK,61,58,920,61,2014-08-02T10:50:00,0,20877872,197381
OK,61,58,920,61,2014-08-02T10:55:00,0,20878321,197381
OK,61,58,920,61,2014-08-02T11:00:00,0,20878770,197381
OK,61,58,920,61,2014-08-02T11:05:00,0,20879219,197381
OK,61,58,920,61,2014-08-02T11:10:00,0,20879668,197381
OK,61,58,920,61,2014-08-02T11:15:00,0,20880117,197381
OK,61,58,920,61,2014-08-02T11:20:00,0,20880566,197381
OK,61,58,920,61,2014-08-02T11:25:00,0,20881015,197381
OK,61,58,920,61,2014-08-02T11:30:00,0,20881464,197381
OK,61,58,920,61,2014-08-02T11:35:00,0,20881913,197381
OK,61,58,920,61,2014-08-02T11:40:00,0,20882362,197381
OK,61,58,920,61,2014-08-02T11:45:00,0,20882811,197381
OK,61,58,920,61,2014-08-02T11:50:00,0,20883260,197381
OK,77,46,920,77,2014-08-02T11:55:00,1,20883709,197381
OK,96,37,920,96,2014-08-02T12:00:00,2,20884158,197381
OK,119,30,920,119,2014-08-02T12:05:00,2,20884607,197381
OK,119,30,920,119,2014-08-02T12:10:00,2,20885056,197381
OK,71,50,920,71,2014-08-02T12:15:00,0,20885505,197381
OK,71,50,920,71,2014-08-02T12:20:00,0,20885954,197381
OK,71,50,920,71,2014-08-02T12:25:00,0,20886403,197381
OK,70,51,920,70,2014-08-02T12:30:00,1,20886852,197381
OK,69,51,920,69,2014-08-02T12:35:00,0,20887301,197381
OK,69,51,920,69,2014-08-02T12:40:00,0,20887750,197381
OK,69,51,920,69,2014-08-02T12:45:00,0,20888199,197381
OK,64,55,920,64,2014-08-02T12:50:00,1,20888648,197381
OK,64,55,920,64,2014-08-02T12:55:00,1,20889097,197381
OK,64,55,920,64,2014-08-02T13:00:00,0,20889546,197381
OK,64,55,920,64,2014-08-02T13:05:00,0,20889995,197381
OK,64,55,920,64,2014-08-02T13:10:00,0,20890444,197381
OK,64,55,920,64,2014-08-02T13:15:00,1,20890893,197381
OK,64,55,920,64,2014-08-02T13:20:00,1,20891342,197381
OK,64,55,920,64,2014-08-02T13:25:00,0,20891791,197381
OK,64,55,920,64,2014-08-02T13:30:00,0,20892240,197381
OK,64,55,920,64,2014-08-02T13:35:00,0,20892689,197381
OK,64,55,920,64,2014-08-02T13:40:00,0,20893138,197381
OK,64,55,920,64,2014-08-02T13:45:00,0,20893587,197381
OK,64,55,920,64,2014-08-02T13:50:00,0,20894036,197381
OK,54,66,920,54,2014-08-02T13:55:00,1,20894485,197381
OK,54,66,920,54,2014-08-02T14:00:00,1,20894934,197381
OK,54,66,920,54,2014-08-02T14:05:00,0,20895383,197381
OK,54,66,920,54,2014-08-02T14:10:00,0,20895832,197381
OK,54,66,920,54,2014-08-02T14:15:00,0,20896281,197381
OK,54,66,920,54,2014-08-02T14:20:00,0,20896730,197381
OK,54,66,920,54,2014-08-02T14:25:00,0,20897179,197381
OK,54,66,920,54,2014-08-02T14:30:00,0,20897628,197381
OK,54,66,920,54,2014-08-02T14:35:00,0,20898077,197381
OK,72,49,920,72,2014-08-02T14:40:00,1,20898526,197381
OK,67,53,920,67,2014-08-02T14:45:00,3,20898975,197381
OK,72,49,920,72,2014-08-02T14:50:00,4,20899424,197381
OK,78,45,920,78,2014-08-02T14:55:00,0,20899873,197381
OK,78,45,920,78,2014-08-02T15:00:00,0,20900322,197381
OK,78,45,920,78,2014-08-02T15:05:00,0,20900771,197381
OK,78,45,920,78,2014-08-02T15:10:00,0,20901220,197381
OK,78,45,920,78,2014-08-02T15:15:00,0,20901669,197381
OK,78,45,920,78,2014-08-02T15:20:00,0,20902118,197381
OK,78,45,920,78,2014-08-02T15:25:00,0,20902567,197381
OK,74,48,920,74,2014-08-02T15:30:00,2,20903016,197381
OK,55,64,920,55,2014-08-02T15:35:00,3,20903465,197381
OK,55,64,920,55,2014-08-02T15:40:00,0,20903914,197381
OK,55,64,920,55,2014-08-02T15:45:00,0,20904363,197381
OK,55,64,920,55,2014-08-02T15:50:00,0,20904812,197381
OK,55,64,920,55,2014-08-02T15:55:00,0,20905261,197381
OK,55,64,920,55,2014-08-02T16:00:00,0,20905710,197381
OK,55,64,920,55,2014-08-02T16:05:00,0,20906159,197381
OK,55,64,920,55,2014-08-02T16:10:00,0,20906608,197381
OK,55,64,920,55,2014-08-02T16:15:00,0,20907057,197381
OK,55,64,920,55,2014-08-02T16:20:00,0,20907506,197381
OK,55,64,920,55,2014-08-02T16:25:00,0,20907955,197381
OK,55,64,920,55,2014-08-02T16:30:00,0,20908404,197381
OK,55,64,920,55,2014-08-02T16:35:00,0,20908853,197381
OK,55,64,920,55,2014-08-02T16:40:00,0,20909302,197381
OK,55,64,920,55,2014-08-02T16:45:00,0,20909751,197381
OK,55,64,920,55,2014-08-02T16:50:00,0,20910200,197381
OK,55,64,920,55,2014-08-02T16:55:00,0,20910649,197381
OK,55,64,920,55,2014-08-02T17:00:00,0,20911098,197381
OK,55,64,920,55,2014-08-02T17:05:00,0,20911547,197381
OK,55,64,920,55,2014-08-02T17:10:00,0,20911996,197381
OK,55,64,920,55,2014-08-02T17:15:00,0,20912445,197381
OK,55,64,920,55,2014-08-02T17:20:00,0,20912894,197381
OK,55,64,920,55,2014-08-02T17:25:00,0,20913343,197381
OK,55,64,920,55,2014-08-02T17:30:00,0,20913792,197381
OK,55,64,920,55,2014-08-02T17:35:00,0,20914241,197381
OK,55,64,920,55,2014-08-02T17:40:00,0,20914690,197381
OK,55,64,920,55,2014-08-02T17:45:00,0,20915139,197381
OK,55,64,920,55,2014-08-02T17:50:00,0,20915588,197381
OK,55,64,920,55,2014-08-02T17:55:00,0,20916037,197381
OK,55,64,920,55,2014-08-02T18:00:00,0,20916486,197381
OK,55,64,920,55,2014-08-02T18:05:00,0,20916935,197381
OK,55,64,920,55,2014-08-02T18:10:00,0,20917384,197381
OK,55,64,920,55,2014-08-02T18:15:00,0,20917833,197381
OK,55,64,920,55,2014-08-02T18:20:00,0,20918282,197381
OK,55,64,920,55,2014-08-02T18:25:00,0,20918731,197381
OK,55,64,920,55,2014-08-02T18:30:00,0,20919180,197381
OK,55,64,920,55,2014-08-02T18:35:00,0,20919629,197381
OK,55,64,920,55,2014-08-02T18:40:00,0,20920078,197381
OK,55,64,920,55,2014-08-02T18:45:00,0,20920527,197381
OK,55,64,920,55,2014-08-02T18:50:00,0,20920976,197381
OK,55,64,920,55,2014-08-02T18:55:00,0,20921425,197381
OK,55,64,920,55,2014-08-02T19:00:00,0,20921874,197381
OK,55,64,920,55,2014-08-02T19:05:00,0,20922323,197381
OK,55,64,920,55,2014-08-02T19:10:00,0,20922772,197381
OK,55,64,920,55,2014-08-02T19:15:00,0,20923221,197381
OK,55,64,920,55,2014-08-02T19:20:00,0,20923670,197381
OK,55,64,920,55,2014-08-02T19:25:00,0,20924119,197381
OK,55,64,920,55,2014-08-02T19:30:00,0,20924568,197381
OK,55,64,920,55,2014-08-02T19:35:00,0,20925017,197381
OK,55,64,920,55,2014-08-02T19:40:00,0,20925466,197381
OK,55,64,920,55,2014-08-02T19:45:00,0,20925915,197381
OK,55,64,920,55,2014-08-02T19:50:00,0,20926364,197381
OK,55,64,920,55,2014-08-02T19:55:00,0,20926813,197381
OK,55,64,920,55,2014-08-02T20:00:00,0,20927262,197381
OK,55,64,920,55,2014-08-02T20:05:00,0,20927711,197381
OK,55,64,920,55,2014-08-02T20:10:00,0,20928160,197381
OK,55,64,920,55,2014-08-02T20:15:00,0,20928609,197381
OK,55,64,920,55,2014-08-02T20:20:00,0,20929058,197381
OK,55,64,920,55,2014-08-02T20:25:00,0,20929507,197381
OK,55,64,920,55,2014-08-02T20:30:00,0,20929956,197381
OK,55,64,920,55,2014-08-02T20:35:00,0,20930405,197381
OK,55,64,920,55,2014-08-02T20:40:00,0,20930854,197381
OK,55,64,920,55,2014-08-02T20:45:00,0,20931303,197381
OK,55,64,920,55,2014-08-02T20:50:00,0,20931752,197381
OK,55,64,920,55,2014-08-02T20:55:00,0,20932201,197381
OK,55,64,920,55,2014-08-02T21:00:00,0,20932650,197381
OK,55,64,920,55,2014-08-02T21:05:00,0,20933099,197381
OK,55,64,920,55,2014-08-02T21:10:00,0,20933548,197381
OK,55,64,920,55,2014-08-02T21:15:00,0,20933997,197381
OK,55,64,920,55,2014-08-02T21:20:00,0,20934446,197381
OK,55,64,920,55,2014-08-02T21:25:00,0,20934895,197381
OK,55,64,920,55,2014-08-02T21:30:00,0,20935344,197381
OK,55,64,920,55,2014-08-02T21:35:00,0,20935793,197381
OK,55,64,920,55,2014-08-02T21:40:00,0,20936242,197381
OK,55,64,920,55,2014-08-02T21:45:00,0,20936691,197381
OK,55,64,920,55,2014-08-02T21:50:00,0,20937140,197381
OK,55,64,920,55,2014-08-02T21:55:00,0,20937589,197381
OK,55,64,920,55,2014-08-02T22:00:00,0,20938038,197381
OK,55,64,920,55,2014-08-02T22:05:00,0,20938487,197381
OK,55,64,920,55,2014-08-02T22:10:00,0,20938936,197381
OK,55,64,920,55,2014-08-02T22:15:00,0,20939385,197381
OK,55,64,920,55,2014-08-02T22:20:00,0,20939834,197381
OK,55,64,920,55,2014-08-02T22:25:00,0,20940283,197381
OK,55,64,920,55,2014-08-02T22:30:00,0,20940732,197381
OK,55,64,920,55,2014-08-02T22:35:00,0,20941181,197381
OK,55,64,920,55,2014-08-02T22:40:00,0,20941630,197381
OK,55,64,920,55,2014-08-02T22:45:00,0,20942079,197381
OK,55,64,920,55,2014-08-02T22:50:00,0,20942528,197381
OK,55,64,920,55,2014-08-02T22:55:00,0,20942977,197381
OK,55,64,920,55,2014-08-02T23:00:00,0,20943426,197381
OK,55,64,920,55,2014-08-02T23:10:00,0,20943875,197381
OK,55,64,920,55,2014-08-02T23:15:00,0,20944324,197381
OK,55,64,920,55,2014-08-02T23:20:00,0,20944773,197381
OK,55,64,920,55,2014-08-02T23:25:00,0,20945222,197381
OK,55,64,920,55,2014-08-02T23:30:00,0,20945671,197381
OK,55,64,920,55,2014-08-02T23:35:00,0,20946120,197381
OK,55,64,920,55,2014-08-02T23:40:00,0,20946569,197381
OK,55,64,920,55,2014-08-02T23:45:00,0,20947018,197381
OK,55,64,920,55,2014-08-02T23:50:00,0,20947467,197381
OK,55,64,920,55,2014-08-02T23:55:00,0,20947916,197381
OK,55,64,920,55,2014-08-03T00:00:00,0,20948365,197381
OK,55,64,920,55,2014-08-03T00:05:00,0,20948814,197381
OK,55,64,920,55,2014-08-03T00:10:00,0,20949262,197381
OK,55,64,920,55,2014-08-03T00:15:00,0,20949711,197381
OK,55,64,920,55,2014-08-03T00:20:00,0,20950160,197381
OK,55,64,920,55,2014-08-03T00:25:00,0,20950609,197381
OK,55,64,920,55,2014-08-03T00:30:00,0,20951058,197381
OK,55,64,920,55,2014-08-03T00:35:00,0,20951507,197381
OK,55,64,920,55,2014-08-03T00:40:00,0,20951956,197381
OK,55,64,920,55,2014-08-03T00:45:00,0,20952405,197381
OK,55,64,920,55,2014-08-03T00:50:00,0,20952854,197381
OK,55,64,920,55,2014-08-03T00:55:00,0,20953303,197381
OK,55,64,920,55,2014-08-03T01:00:00,0,20953752,197381
OK,55,64,920,55,2014-08-03T01:05:00,0,20954201,197381
OK,55,64,920,55,2014-08-03T01:10:00,0,20954650,197381
OK,55,64,920,55,2014-08-03T01:15:00,0,20955099,197381
OK,55,64,920,55,2014-08-03T01:20:00,0,20955548,197381
OK,55,64,920,55,2014-08-03T01:25:00,0,20955997,197381
OK,55,64,920,55,2014-08-03T01:30:00,0,20956446,197381
OK,55,64,920,55,2014-08-03T01:35:00,0,20956895,197381
OK,55,64,920,55,2014-08-03T01:40:00,0,20957344,197381
OK,55,64,920,55,2014-08-03T01:45:00,0,20957793,197381
OK,55,64,920,55,2014-08-03T01:50:00,0,20958242,197381
OK,55,64,920,55,2014-08-03T01:55:00,0,20958691,197381
OK,55,64,920,55,2014-08-03T02:00:00,0,20959140,197381
OK,55,64,920,55,2014-08-03T02:05:00,0,20959589,197381
OK,55,64,920,55,2014-08-03T02:10:00,0,20960038,197381
OK,55,64,920,55,2014-08-03T02:15:00,0,20960487,197381
OK,55,64,920,55,2014-08-03T02:20:00,0,20960936,197381